When you browse on this site, cookies collect data to enhance your experience and personalize the content and advertising you see.
Visit our Privacy Policy to learn more. By continuing to use the site, you agree to this use of cookies and data.
  • In Austria
  • List of Countries
  • For 7 days
  • Water Temperature
  • Weather Map
  • News
  • Weather Widgets
  • user-avatar
    Login

    Hourly Weather Tepeapulco

    Today, 21 October, Monday

    Time Temperature Precipitation Wind Pressure Humidity
    00:00 +12°C° 0 mm 2 mps 560 mmHg 88%
    01:00 +12°C° 0 mm 2 mps 559 mmHg 89%
    02:00 +12°C° 0 mm 2 mps 559 mmHg 90%
    03:00 +12°C° 0 mm 1 mps 559 mmHg 91%
    04:00 +12°C° 0 mm 1 mps 559 mmHg 91%
    05:00 +11°C° 0 mm 1 mps 559 mmHg 92%
    06:00 +13°C° 0 mm 1 mps 560 mmHg 86%
    07:00 +15°C° 0 mm 1 mps 562 mmHg 80%
    08:00 +18°C° 0 mm 1 mps 563 mmHg 74%
    09:00 +19°C° 0.1 mm 1 mps 563 mmHg 67%
    10:00 +21°C° 0.1 mm 1 mps 564 mmHg 60%
    11:00 +22°C° 0.1 mm 1 mps 565 mmHg 54%
    12:00 +22°C° 0.6 mm 1 mps 564 mmHg 54%
    13:00 +22°C° 0.6 mm 1 mps 564 mmHg 54%
    14:00 +22°C° 0.6 mm 1 mps 563 mmHg 54%
    15:00 +20°C° 0.6 mm 2 mps 562 mmHg 61%
    16:00 +18°C° 0.6 mm 2 mps 562 mmHg 68%
    17:00 +17°C° 0.6 mm 2 mps 561 mmHg 76%
    18:00 +16°C° 0.1 mm 2 mps 562 mmHg 79%
    19:00 +15°C° 0.1 mm 2 mps 562 mmHg 82%
    20:00 +14°C° 0.1 mm 2 mps 562 mmHg 86%
    21:00 +14°C° 0 mm 2 mps 562 mmHg 87%
    22:00 +13°C° 0 mm 2 mps 562 mmHg 89%
    23:00 +13°C° 0 mm 2 mps 562 mmHg 90%

    Tomorrow, 22 October, Tuesday

    Time Temperature Precipitation Wind Pressure Humidity
    00:00 +13°C° 0 mm 1 mps 561 mmHg 91%
    01:00 +13°C° 0 mm 1 mps 561 mmHg 92%
    02:00 +12°C° 0 mm 1 mps 561 mmHg 93%
    03:00 +12°C° 0 mm 1 mps 561 mmHg 93%
    04:00 +12°C° 0 mm 1 mps 561 mmHg 94%
    05:00 +12°C° 0 mm 1 mps 561 mmHg 94%
    06:00 +13°C° 0 mm 1 mps 562 mmHg 89%
    07:00 +14°C° 0 mm 2 mps 563 mmHg 85%
    08:00 +16°C° 0 mm 2 mps 564 mmHg 80%
    09:00 +17°C° 0.1 mm 2 mps 565 mmHg 75%
    10:00 +18°C° 0.1 mm 3 mps 565 mmHg 70%
    11:00 +19°C° 0.1 mm 3 mps 565 mmHg 65%
    12:00 +19°C° 0.1 mm 4 mps 564 mmHg 66%
    13:00 +17°C° 0.1 mm 5 mps 564 mmHg 67%
    14:00 +17°C° 0.1 mm 6 mps 563 mmHg 68%
    15:00 +16°C° 0.1 mm 5 mps 563 mmHg 73%
    16:00 +14°C° 0.1 mm 5 mps 562 mmHg 78%
    17:00 +13°C° 0.1 mm 4 mps 562 mmHg 83%
    18:00 +12°C° 0 mm 3 mps 562 mmHg 85%
    19:00 +12°C° 0 mm 3 mps 563 mmHg 87%
    20:00 +12°C° 0 mm 2 mps 563 mmHg 89%
    21:00 +12°C° 0.1 mm 2 mps 563 mmHg 90%
    22:00 +11°C° 0.1 mm 1 mps 562 mmHg 92%
    23:00 +11°C° 0.1 mm 1 mps 562 mmHg 94%

    Day after tomorrow, 23 October, Wednesday

    Time Temperature Precipitation Wind Pressure Humidity
    00:00 +11°C° 0 mm 1 mps 562 mmHg 93%
    01:00 +11°C° 0 mm 1 mps 561 mmHg 93%
    02:00 +11°C° 0 mm 1 mps 561 mmHg 92%
    03:00 +10°C° 0 mm 1 mps 561 mmHg 92%
    04:00 +10°C° 0 mm 1 mps 561 mmHg 92%
    05:00 +10°C° 0 mm 1 mps 561 mmHg 91%
    06:00 +12°C° 0 mm 1 mps 562 mmHg 85%
    07:00 +13°C° 0 mm 1 mps 563 mmHg 79%
    08:00 +14°C° 0 mm 2 mps 563 mmHg 73%
    09:00 +15°C° 0 mm 2 mps 564 mmHg 69%
    10:00 +17°C° 0 mm 2 mps 564 mmHg 66%
    11:00 +18°C° 0 mm 3 mps 564 mmHg 62%
    12:00 +18°C° 0.1 mm 3 mps 564 mmHg 60%
    13:00 +19°C° 0.1 mm 4 mps 563 mmHg 58%
    14:00 +19°C° 0.1 mm 4 mps 563 mmHg 56%
    15:00 +17°C° 0 mm 4 mps 562 mmHg 64%
    16:00 +16°C° 0 mm 3 mps 561 mmHg 72%
    17:00 +13°C° 0 mm 3 mps 560 mmHg 80%
    18:00 +12°C° 0 mm 3 mps 561 mmHg 84%
    19:00 +12°C° 0 mm 2 mps 561 mmHg 89%
    20:00 +10°C° 0 mm 2 mps 561 mmHg 93%
    21:00 +11°C° 0 mm 1 mps 560 mmHg 93%
    22:00 +11°C° 0 mm 1 mps 560 mmHg 92%
    23:00 +11°C° 0 mm 1 mps 560 mmHg 92%

    24 October, Thursday

    Time Temperature Precipitation Wind Pressure Humidity
    00:00 +11°C° 0 mm 1 mps 560 mmHg 92%
    01:00 +9°C° 0 mm 0 mps 559 mmHg 93%
    02:00 +9°C° 0 mm 0 mps 559 mmHg 93%
    03:00 +9°C° 0 mm 0 mps 559 mmHg 93%
    04:00 +9°C° 0 mm 0 mps 559 mmHg 92%
    05:00 +9°C° 0 mm 0 mps 559 mmHg 92%
    06:00 +10°C° 0 mm 0 mps 560 mmHg 85%
    07:00 +13°C° 0 mm 1 mps 561 mmHg 79%
    08:00 +15°C° 0 mm 1 mps 562 mmHg 72%
    09:00 +16°C° 0.1 mm 2 mps 563 mmHg 67%
    10:00 +18°C° 0.1 mm 2 mps 563 mmHg 62%
    11:00 +19°C° 0.1 mm 3 mps 563 mmHg 57%
    12:00 +19°C° 0.5 mm 3 mps 563 mmHg 59%
    13:00 +19°C° 0.5 mm 3 mps 562 mmHg 62%
    14:00 +19°C° 0.5 mm 4 mps 561 mmHg 64%
    15:00 +17°C° 0.7 mm 3 mps 561 mmHg 71%
    16:00 +16°C° 0.7 mm 3 mps 560 mmHg 78%
    17:00 +15°C° 0.7 mm 2 mps 560 mmHg 85%
    18:00 +14°C° 0.1 mm 2 mps 560 mmHg 88%
    19:00 +13°C° 0.1 mm 2 mps 560 mmHg 91%
    20:00 +13°C° 0.1 mm 1 mps 560 mmHg 94%
    21:00 +12°C° 0 mm 1 mps 560 mmHg 94%
    22:00 +12°C° 0 mm 1 mps 560 mmHg 94%
    23:00 +12°C° 0 mm 1 mps 560 mmHg 94%

    25 October, Friday

    Time Temperature Precipitation Wind Pressure Humidity
    00:00 +12°C° 0 mm 1 mps 560 mmHg 94%
    01:00 +12°C° 0 mm 1 mps 560 mmHg 94%
    02:00 +12°C° 0 mm 1 mps 560 mmHg 93%
    03:00 +12°C° 0 mm 1 mps 560 mmHg 93%
    04:00 +12°C° 0 mm 1 mps 560 mmHg 92%
    05:00 +12°C° 0 mm 1 mps 561 mmHg 92%
    06:00 +13°C° 0.1 mm 1 mps 561 mmHg 90%
    07:00 +13°C° 0.1 mm 2 mps 562 mmHg 88%
    08:00 +13°C° 0.1 mm 2 mps 562 mmHg 87%
    09:00 +13°C° 0.4 mm 2 mps 562 mmHg 86%
    10:00 +14°C° 0.4 mm 2 mps 562 mmHg 86%
    11:00 +14°C° 0.4 mm 2 mps 562 mmHg 86%
    12:00 +13°C° 0.4 mm 3 mps 562 mmHg 85%
    13:00 +13°C° 0.4 mm 4 mps 562 mmHg 83%
    14:00 +13°C° 0.4 mm 5 mps 561 mmHg 82%
    15:00 +12°C° 0.3 mm 4 mps 561 mmHg 84%
    16:00 +11°C° 0.3 mm 4 mps 561 mmHg 87%
    17:00 +11°C° 0.3 mm 4 mps 561 mmHg 89%
    18:00 +10°C° 0.2 mm 4 mps 562 mmHg 89%
    19:00 +10°C° 0.2 mm 3 mps 562 mmHg 89%
    20:00 +10°C° 0.2 mm 3 mps 562 mmHg 90%
    21:00 +10°C° 0.1 mm 3 mps 562 mmHg 90%
    22:00 +10°C° 0.1 mm 3 mps 562 mmHg 90%
    23:00 +10°C° 0.1 mm 3 mps 562 mmHg 89%

    26 October, Saturday

    Time Temperature Precipitation Wind Pressure Humidity
    00:00 +9°C° 0 mm 2 mps 562 mmHg 89%
    01:00 +9°C° 0 mm 2 mps 562 mmHg 89%
    02:00 +9°C° 0 mm 2 mps 562 mmHg 89%
    03:00 +9°C° 0 mm 2 mps 562 mmHg 89%
    04:00 +9°C° 0 mm 2 mps 562 mmHg 89%
    05:00 +10°C° 0 mm 1 mps 562 mmHg 89%
    06:00 +10°C° 0 mm 2 mps 562 mmHg 87%
    07:00 +10°C° 0 mm 2 mps 563 mmHg 84%
    08:00 +12°C° 0 mm 2 mps 563 mmHg 81%
    09:00 +13°C° 0 mm 2 mps 563 mmHg 76%
    10:00 +15°C° 0 mm 2 mps 564 mmHg 70%
    11:00 +16°C° 0 mm 1 mps 564 mmHg 64%
    12:00 +17°C° 0.1 mm 2 mps 564 mmHg 63%
    13:00 +17°C° 0.1 mm 2 mps 563 mmHg 63%
    14:00 +18°C° 0.1 mm 2 mps 563 mmHg 62%
    15:00 +16°C° 0.2 mm 2 mps 563 mmHg 70%
    16:00 +14°C° 0.2 mm 2 mps 562 mmHg 77%
    17:00 +13°C° 0.2 mm 2 mps 562 mmHg 85%
    18:00 +12°C° 0.1 mm 2 mps 562 mmHg 86%
    19:00 +12°C° 0.1 mm 1 mps 562 mmHg 88%
    20:00 +10°C° 0.1 mm 0 mps 562 mmHg 90%
    21:00 +11°C° 0 mm 1 mps 562 mmHg 89%
    22:00 +11°C° 0 mm 1 mps 562 mmHg 89%
    23:00 +12°C° 0 mm 1 mps 562 mmHg 89%

    27 October, Sunday

    Time Temperature Precipitation Wind Pressure Humidity
    00:00 +11°C° 0 mm 1 mps 561 mmHg 89%
    01:00 +11°C° 0 mm 1 mps 561 mmHg 90%
    02:00 +10°C° 0 mm 0 mps 560 mmHg 91%
    03:00 +10°C° 0 mm 0 mps 560 mmHg 91%
    04:00 +9°C° 0 mm 0 mps 560 mmHg 91%
    05:00 +9°C° 0 mm 0 mps 560 mmHg 90%
    06:00 +11°C° 0 mm 0 mps 561 mmHg 83%
    07:00 +13°C° 0 mm 0 mps 562 mmHg 76%
    08:00 +15°C° 0 mm 0 mps 563 mmHg 69%
    09:00 +18°C° 0 mm 1 mps 564 mmHg 64%
    10:00 +18°C° 0 mm 2 mps 564 mmHg 59%
    11:00 +20°C° 0 mm 2 mps 565 mmHg 54%
    12:00 +19°C° 0.4 mm 3 mps 564 mmHg 56%
    13:00 +19°C° 0.4 mm 3 mps 564 mmHg 59%
    14:00 +19°C° 0.4 mm 3 mps 563 mmHg 61%
    15:00 +18°C° 0.6 mm 3 mps 563 mmHg 69%
    16:00 +16°C° 0.6 mm 3 mps 562 mmHg 76%
    17:00 +15°C° 0.6 mm 2 mps 562 mmHg 83%
    18:00 +14°C° 0.1 mm 2 mps 562 mmHg 84%
    19:00 +13°C° 0.1 mm 1 mps 562 mmHg 85%
    20:00 +12°C° 0.1 mm 1 mps 562 mmHg 86%
    21:00 +12°C° 0 mm 1 mps 562 mmHg 83%
    22:00 +12°C° 0 mm 1 mps 561 mmHg 81%
    23:00 +11°C° 0 mm 1 mps 561 mmHg 79%
    Show more